Time,TemperatureF,DewpointF,PressureIn,WindDirection,WindDirectionDegrees,WindSpeedMPH,WindSpeedGustMPH,Humidity,HourlyPrecipIn,Conditions,Clouds,dailyrainin,SoftwareType,DateUTC
2013-02-18 14:29:00,60.8,39.3,17.72,SW,235,25.1,25.1,45,1.73,,---,0.00,VWS V14.01,2013-02-18 20:29:00,
2013-02-18 14:34:00,55.9,37.6,17.72,WSW,253,22.4,22.4,50,0.28,,---,0.28,VWS V14.01,2013-02-18 20:34:00,
2013-02-18 14:39:00,52.5,39.9,17.72,WSW,250,13.2,13.2,62,0.63,,---,0.63,VWS V14.01,2013-02-18 20:39:00,
2013-02-18 14:44:00,53.4,45.0,17.72,WSW,248,13.2,13.2,73,0.63,,---,0.63,VWS V14.01,2013-02-18 20:44:00,
2013-02-18 14:49:00,54.9,47.8,17.72,West,262,10.5,15.0,77,0.63,,---,0.63,VWS V14.01,2013-02-18 20:49:00,
2013-02-18 14:54:00,55.2,47.5,17.72,WSW,248,8.7,8.7,75,0.63,,---,0.63,VWS V14.01,2013-02-18 20:54:00,
2013-02-18 14:59:00,55.4,47.3,17.72,WSW,240,4.9,5.8,74,0.63,,---,0.63,VWS V14.01,2013-02-18 20:59:00,
2013-02-18 15:04:00,55.4,47.3,17.72,SW,235,6.3,8.1,74,0.63,,---,0.63,VWS V14.01,2013-02-18 21:04:00,
2013-02-18 15:09:00,55.4,47.3,17.72,West,271,7.6,8.7,74,0.63,,---,0.63,VWS V14.01,2013-02-18 21:09:00,
2013-02-18 15:14:00,55.4,47.3,17.72,WSW,256,8.1,8.3,74,0.63,,---,0.63,VWS V14.01,2013-02-18 21:14:00,
2013-02-18 15:19:00,55.4,47.3,17.72,West,272,7.6,8.1,74,0.63,,---,0.63,VWS V14.01,2013-02-18 21:19:00,
2013-02-18 15:24:00,57.2,42.1,17.72,West,276,9.6,9.6,57,0.63,,---,0.63,VWS V14.01,2013-02-18 21:24:00,
2013-02-18 15:29:00,57.2,42.1,17.72,WNW,289,5.8,5.8,57,0.63,,---,0.63,VWS V14.01,2013-02-18 21:29:00,
2013-02-18 15:34:00,57.9,38.4,17.72,WNW,292,3.6,10.1,48,0.35,,---,0.63,VWS V14.01,2013-02-18 21:34:00,
2013-02-18 15:39:00,58.1,39.6,17.72,West,279,11.4,13.2,50,0.04,,---,0.63,VWS V14.01,2013-02-18 21:39:00,
2013-02-18 15:44:00,58.1,39.6,17.72,West,260,8.1,8.7,50,0.00,,---,0.63,VWS V14.01,2013-02-18 21:44:00,
2013-02-18 15:49:00,58.1,39.6,17.72,West,265,12.8,12.8,50,0.00,,---,0.63,VWS V14.01,2013-02-18 21:49:00,
2013-02-18 15:54:00,58.1,39.6,17.72,West,265,7.2,7.2,50,0.00,,---,0.63,VWS V14.01,2013-02-18 21:54:00,
2013-02-18 15:59:00,58.1,39.6,17.72,NNW,338,5.4,5.8,50,0.00,,---,0.63,VWS V14.01,2013-02-18 21:59:00,
2013-02-18 16:04:00,58.1,39.6,17.72,West,270,8.3,8.3,50,0.00,,---,0.63,VWS V14.01,2013-02-18 22:04:00,
2013-02-18 16:09:00,56.5,23.8,17.72,WNW,289,13.2,13.2,28,0.00,,---,0.63,VWS V14.01,2013-02-18 22:09:00,
2013-02-18 16:14:00,55.9,22.5,17.72,WNW,283,12.3,12.3,27,0.00,,---,0.63,VWS V14.01,2013-02-18 22:14:00,
2013-02-18 16:19:00,55.8,23.2,17.72,NW,312,5.8,8.1,28,0.00,,---,0.63,VWS V14.01,2013-02-18 22:19:00,
2013-02-18 16:24:00,55.4,22.0,17.72,NW,319,6.7,8.3,27,0.00,,---,0.63,VWS V14.01,2013-02-18 22:24:00,
2013-02-18 16:29:00,55.4,22.0,17.72,WNW,295,4.0,8.1,27,0.00,,---,0.63,VWS V14.01,2013-02-18 22:29:00,
2013-02-18 16:34:00,55.4,22.0,17.72,NW,310,7.6,10.1,27,0.00,,---,0.63,VWS V14.01,2013-02-18 22:34:00,
2013-02-18 16:39:00,55.4,22.0,17.72,NW,310,9.6,9.6,27,0.00,,---,0.63,VWS V14.01,2013-02-18 22:39:00,
2013-02-18 16:44:00,55.4,22.0,17.72,WNW,302,10.1,10.1,27,0.00,,---,0.63,VWS V14.01,2013-02-18 22:44:00,
2013-02-18 16:49:00,54.7,22.2,17.72,NW,313,11.4,12.8,28,0.00,,---,0.63,VWS V14.01,2013-02-18 22:49:00,
2013-02-18 16:54:00,54.5,21.2,17.72,NW,320,7.6,8.7,27,0.00,,---,0.63,VWS V14.01,2013-02-18 22:54:00,
2013-02-18 16:59:00,54.5,21.2,17.72,WNW,284,6.3,6.3,27,0.00,,---,0.63,VWS V14.01,2013-02-18 22:59:00,
2013-02-18 17:04:00,54.5,21.2,17.72,West,270,7.6,7.6,27,0.00,,---,0.63,VWS V14.01,2013-02-18 23:04:00,
2013-02-18 17:09:00,54.5,21.2,17.72,WNW,296,5.4,8.1,27,0.00,,---,0.00,VWS V14.01,2013-02-18 23:09:00,
2013-02-18 17:14:00,53.6,21.3,17.72,NW,325,11.0,11.0,28,0.00,,---,0.63,VWS V14.01,2013-02-18 23:14:00,
2013-02-18 17:19:00,53.1,20.8,17.72,NW,307,8.1,10.5,28,0.00,,---,0.63,VWS V14.01,2013-02-18 23:19:00,
2013-02-18 17:24:00,52.7,20.5,17.72,NNW,331,8.1,8.1,28,0.00,,---,0.63,VWS V14.01,2013-02-18 23:24:00,
2013-02-18 17:29:00,52.5,20.4,17.72,NW,326,8.3,8.3,28,0.00,,---,0.63,VWS V14.01,2013-02-18 23:29:00,
2013-02-18 17:34:00,52.2,20.1,17.72,NW,310,4.0,5.8,28,0.00,,---,0.63,VWS V14.01,2013-02-18 23:34:00,
2013-02-18 17:39:00,51.8,19.8,17.72,NW,321,14.5,14.5,28,0.00,,---,0.63,VWS V14.01,2013-02-18 23:39:00,
2013-02-18 17:44:00,51.6,20.4,17.72,West,274,5.4,12.3,29,0.00,,---,0.63,VWS V14.01,2013-02-18 23:44:00,
2013-02-18 17:49:00,51.4,20.3,17.72,NW,304,8.1,8.7,29,0.00,,---,0.63,VWS V14.01,2013-02-18 23:49:00,
2013-02-18 17:54:00,50.7,19.6,17.72,NW,318,6.3,10.1,29,0.00,,---,0.63,VWS V14.01,2013-02-18 23:54:00,
2013-02-18 17:59:00,50.7,19.6,17.72,West,277,12.8,12.8,29,0.00,,---,0.63,VWS V14.01,2013-02-18 23:59:00,
2013-02-18 18:04:00,50.5,19.5,17.72,West,270,10.1,10.1,29,0.00,,---,0.63,VWS V14.01,2013-02-19 00:04:00,
2013-02-18 18:09:00,50.0,19.0,17.72,WNW,303,8.1,8.1,29,0.00,,---,0.63,VWS V14.01,2013-02-19 00:09:00,
2013-02-18 18:14:00,49.8,19.6,17.72,NW,307,6.3,7.6,30,0.00,,---,0.63,VWS V14.01,2013-02-19 00:14:00,
2013-02-18 18:19:00,49.5,19.3,17.72,West,275,11.0,15.0,30,0.00,,---,0.63,VWS V14.01,2013-02-19 00:19:00,
2013-02-18 18:24:00,49.5,19.3,17.72,NNW,344,5.4,5.8,30,0.00,,---,0.63,VWS V14.01,2013-02-19 00:24:00,
2013-02-18 18:29:00,48.7,19.5,17.72,NW,307,4.0,5.8,31,0.00,,---,0.63,VWS V14.01,2013-02-19 00:29:00,
2013-02-18 18:34:00,48.6,19.3,17.72,NW,307,5.8,6.3,31,0.00,,---,0.63,VWS V14.01,2013-02-19 00:34:00,
2013-02-18 18:39:00,48.6,19.3,17.72,WNW,289,5.4,6.7,31,0.00,,---,0.63,VWS V14.01,2013-02-19 00:39:00,
2013-02-18 18:44:00,48.4,19.2,17.72,WNW,296,5.4,6.3,31,0.00,,---,0.63,VWS V14.01,2013-02-19 00:44:00,
2013-02-18 18:49:00,48.2,19.0,17.72,NW,312,4.0,5.8,31,0.00,,---,0.63,VWS V14.01,2013-02-19 00:49:00,
2013-02-18 18:54:00,48.2,19.0,17.72,WNW,290,4.0,5.8,31,0.00,,---,0.63,VWS V14.01,2013-02-19 00:54:00,
2013-02-18 18:59:00,48.2,19.0,17.72,WNW,299,2.7,3.1,31,0.00,,---,0.63,VWS V14.01,2013-02-19 00:59:00,
2013-02-18 19:04:00,47.3,19.7,17.72,NNW,329,5.8,5.8,33,0.00,,---,0.63,VWS V14.01,2013-02-19 01:04:00,
2013-02-18 19:09:00,47.5,19.8,17.72,NNW,336,3.6,4.9,33,0.00,,---,0.63,VWS V14.01,2013-02-19 01:09:00,
2013-02-18 19:14:00,47.1,20.2,17.72,NW,320,3.6,4.9,34,0.00,,---,0.63,VWS V14.01,2013-02-19 01:14:00,
2013-02-18 19:19:00,47.1,20.2,17.72,WNW,292,3.6,3.6,34,0.00,,---,0.63,VWS V14.01,2013-02-19 01:19:00,
2013-02-18 19:24:00,47.1,20.2,17.72,WNW,303,3.6,4.9,34,0.00,,---,0.63,VWS V14.01,2013-02-19 01:24:00,
2013-02-18 19:29:00,46.6,20.4,17.72,NNW,329,4.0,4.9,35,0.00,,---,0.63,VWS V14.01,2013-02-19 01:29:00,
2013-02-18 19:34:00,46.2,21.4,17.72,WNW,294,4.0,4.9,37,0.00,,---,0.63,VWS V14.01,2013-02-19 01:34:00,
2013-02-18 19:39:00,46.4,20.9,17.72,NNW,345,8.1,11.0,36,0.00,,---,0.63,VWS V14.01,2013-02-19 01:39:00,
2013-02-18 19:44:00,47.3,19.7,17.72,NNW,338,10.5,10.5,33,0.00,,---,0.63,VWS V14.01,2013-02-19 01:44:00,
2013-02-18 19:49:00,46.9,19.4,17.72,NW,311,8.1,8.1,33,0.00,,---,0.63,VWS V14.01,2013-02-19 01:49:00,
2013-02-18 19:54:00,46.8,19.2,17.72,NW,316,8.7,8.7,33,0.00,,---,0.63,VWS V14.01,2013-02-19 01:54:00,
2013-02-18 19:59:00,46.4,18.2,17.72,NW,312,10.1,10.1,32,0.00,,---,0.63,VWS V14.01,2013-02-19 01:59:00,
2013-02-18 20:05:00,46.2,18.7,17.72,NW,316,6.3,8.3,33,0.00,,---,0.63,VWS V14.01,2013-02-19 02:05:00,
2013-02-18 20:10:00,45.7,18.9,17.72,North,353,6.3,8.3,34,0.00,,---,0.63,VWS V14.01,2013-02-19 02:10:00,
2013-02-18 20:15:00,45.3,19.3,17.72,WNW,302,6.3,6.3,35,0.00,,---,0.63,VWS V14.01,2013-02-19 02:15:00,
2013-02-18 20:20:00,45.1,19.1,17.72,NW,326,5.8,7.6,35,0.00,,---,0.63,VWS V14.01,2013-02-19 02:20:00,
2013-02-18 20:25:00,44.6,18.7,17.72,WNW,301,8.7,8.7,35,0.00,,---,0.63,VWS V14.01,2013-02-19 02:25:00,
2013-02-18 20:30:00,44.2,19.6,17.72,WNW,299,4.9,7.2,37,0.00,,---,0.63,VWS V14.01,2013-02-19 02:30:00,
2013-02-18 20:35:00,44.1,20.1,17.72,North,353,5.4,5.4,38,0.00,,---,0.63,VWS V14.01,2013-02-19 02:35:00,
2013-02-18 20:40:00,44.1,20.1,17.72,NNW,344,10.5,10.5,38,0.00,,---,0.63,VWS V14.01,2013-02-19 02:40:00,
2013-02-18 20:45:00,44.1,19.5,17.72,NW,309,5.4,7.6,37,0.00,,---,0.63,VWS V14.01,2013-02-19 02:45:00,
2013-02-18 20:50:00,43.5,19.6,17.72,NW,316,8.3,8.3,38,0.00,,---,0.63,VWS V14.01,2013-02-19 02:50:00,
2013-02-18 20:55:00,43.5,19.6,17.72,NW,318,10.1,10.1,38,0.00,,---,0.63,VWS V14.01,2013-02-19 02:55:00,
2013-02-18 21:00:00,43.2,19.3,17.72,NW,316,5.8,5.8,38,0.00,,---,0.63,VWS V14.01,2013-02-19 03:00:00,
2013-02-18 21:05:00,43.0,19.1,17.72,WNW,298,8.1,8.1,38,0.00,,---,0.63,VWS V14.01,2013-02-19 03:05:00,
2013-02-18 21:10:00,43.2,19.3,17.72,NW,317,6.3,6.3,38,0.00,,---,0.63,VWS V14.01,2013-02-19 03:10:00,
2013-02-18 21:15:00,43.2,19.3,17.72,NW,314,8.7,8.7,38,0.00,,---,0.63,VWS V14.01,2013-02-19 03:15:00,
2013-02-18 21:20:00,43.0,18.5,17.72,NW,307,11.0,11.0,37,0.00,,---,0.63,VWS V14.01,2013-02-19 03:20:00,
2013-02-18 21:25:00,43.0,18.5,17.72,NNE,23,8.1,8.1,37,0.00,,---,0.63,VWS V14.01,2013-02-19 03:25:00,
2013-02-18 21:30:00,42.3,18.5,17.72,NNW,330,7.6,8.3,38,0.00,,---,0.63,VWS V14.01,2013-02-19 03:30:00,
2013-02-18 21:35:00,42.3,18.5,17.72,NNW,346,5.8,6.3,38,0.00,,---,0.63,VWS V14.01,2013-02-19 03:35:00,
2013-02-18 21:40:00,42.1,17.7,17.72,North,353,8.3,8.3,37,0.00,,---,0.63,VWS V14.01,2013-02-19 03:40:00,
2013-02-18 21:45:00,42.1,17.7,17.72,NW,321,11.0,11.0,37,0.00,,---,0.63,VWS V14.01,2013-02-19 03:45:00,
2013-02-18 21:50:00,41.7,17.4,17.72,NNW,336,11.0,11.0,37,0.00,,---,0.63,VWS V14.01,2013-02-19 03:50:00,
2013-02-18 21:55:00,41.5,17.8,17.72,NNW,341,5.8,6.3,38,0.00,,---,0.63,VWS V14.01,2013-02-19 03:55:00,
2013-02-18 22:00:00,41.5,16.6,17.72,NNW,329,5.4,6.3,36,0.00,,---,0.63,VWS V14.01,2013-02-19 04:00:00,
2013-02-18 22:05:00,41.4,16.4,17.72,NNW,331,5.8,8.3,36,0.00,,---,0.63,VWS V14.01,2013-02-19 04:05:00,
2013-02-18 22:10:00,41.5,16.6,17.72,NW,312,3.6,6.3,36,0.00,,---,0.63,VWS V14.01,2013-02-19 04:10:00,
2013-02-18 22:15:00,40.6,15.8,17.72,NNW,344,8.3,8.3,36,0.00,,---,0.63,VWS V14.01,2013-02-19 04:15:00,
2013-02-18 22:20:00,40.6,16.4,17.72,North,353,6.3,6.3,37,0.00,,---,0.63,VWS V14.01,2013-02-19 04:20:00,
2013-02-18 22:25:00,40.5,15.6,17.72,NNW,338,5.8,8.7,36,0.00,,---,0.63,VWS V14.01,2013-02-19 04:25:00,
2013-02-18 22:30:00,40.3,15.5,17.72,NW,323,10.1,10.1,36,0.00,,---,0.63,VWS V14.01,2013-02-19 04:30:00,
2013-02-18 22:35:00,40.1,15.9,17.72,NNW,335,8.1,8.7,37,0.00,,---,0.63,VWS V14.01,2013-02-19 04:35:00,
2013-02-18 22:40:00,39.9,15.8,17.72,NW,325,5.8,8.7,37,0.00,,---,0.63,VWS V14.01,2013-02-19 04:40:00,
2013-02-18 22:45:00,39.7,15.6,17.72,North,353,4.9,8.7,37,0.00,,---,0.63,VWS V14.01,2013-02-19 04:45:00,
2013-02-18 22:50:00,39.6,15.4,17.72,NNW,331,6.3,11.0,37,0.00,,---,0.63,VWS V14.01,2013-02-19 04:50:00,
2013-02-18 22:55:00,39.2,15.1,17.72,WNW,298,2.2,6.3,37,0.00,,---,0.63,VWS V14.01,2013-02-19 04:55:00,
2013-02-18 23:00:00,38.8,15.4,17.72,NW,322,3.6,6.3,38,0.00,,---,0.63,VWS V14.01,2013-02-19 05:00:00,
2013-02-18 23:06:00,38.8,14.8,17.72,North,353,4.0,11.0,37,0.00,,---,0.63,VWS V14.01,2013-02-19 05:06:00,
2013-02-18 23:11:00,38.3,14.3,17.72,NNW,346,5.4,8.3,37,0.00,,---,0.63,VWS V14.01,2013-02-19 05:11:00,
2013-02-18 23:16:00,38.1,15.4,17.72,North,357,3.6,5.8,39,0.00,,---,0.63,VWS V14.01,2013-02-19 05:16:00,
2013-02-18 23:21:00,38.1,14.8,17.72,NNW,339,4.0,8.1,38,0.00,,---,0.63,VWS V14.01,2013-02-19 05:21:00,
2013-02-18 23:26:00,38.1,14.8,17.72,North,353,8.3,8.3,38,0.00,,---,0.63,VWS V14.01,2013-02-19 05:26:00,
2013-02-18 23:30:00,38.1,14.8,17.72,NW,313,3.6,6.3,38,0.00,,---,0.63,VWS V14.01,2013-02-19 05:30:00,
2013-02-18 23:36:00,37.9,13.4,17.72,NNW,336,2.7,5.4,36,0.00,,---,0.63,VWS V14.01,2013-02-19 05:36:00,
2013-02-18 23:40:00,37.4,14.1,17.72,WNW,303,6.3,8.3,38,0.00,,---,0.63,VWS V14.01,2013-02-19 05:40:00,
2013-02-18 23:45:00,37.4,13.5,17.72,NNW,327,7.6,9.2,37,0.00,,---,0.63,VWS V14.01,2013-02-19 05:45:00,
2013-02-18 23:51:00,37.2,14.6,17.72,NW,322,5.4,5.8,39,0.00,,---,0.63,VWS V14.01,2013-02-19 05:51:00,
2013-02-18 23:56:00,36.9,14.2,17.72,NNW,339,6.3,6.3,39,0.00,,---,0.63,VWS V14.01,2013-02-19 05:56:00,